{"data":{"norad_id":66194,"intl_designator":"2025-243T","name":"STARLINK-35374","alt_names":[],"object_type":"PAYLOAD","status":"ACTIVE","operator":null,"country":"US","launch_date":"2025-10-26","launch_site_code":"AFETR","launch_vehicle":null,"mission":null,"orbit_class":"UNKNOWN","rcs_meters":null,"size_class":null,"mass_kg":null,"dimensions":null,"purposes":["comms"],"wikipedia_slug":null,"has_3d_model":false,"image_url":null,"decayed_at":null,"tle_current":{"epoch":"2026-09-20T16:39:50.631264Z","epoch_age_seconds":83656,"freshness":"FRESH","line1":"1 66194U 25243T   26263.69433601  .00021517  00000+0  70260-3 0  9996","line2":"2 66194  53.1594  57.7902 0001699  84.6861 275.4335 15.31723916 50533","mean_motion":15.31723916,"eccentricity":0.0001699,"inclination_deg":53.1594,"raan_deg":57.7902,"arg_perigee_deg":84.6861,"mean_anomaly_deg":275.4335,"bstar":0.0007026,"rev_number":5053,"period_min":94.01172005987,"perigee_km":469.50509171268,"apogee_km":471.83231589083,"semimajor_km":6848.8057038018,"source":"CELESTRAK","updated_at":"2026-09-21T09:00:35.837001Z"}}}